Location: LC-39B
(28.6273°N, 80.6211°W)
Time: 08:50:15
(UTC+00:00)

ISS - Visible Passes

Search period start: 22 April 2018 00:00
Search period end: 02 May 2018 00:00
Orbit: 403 x 406 km, 51.6° (Epoch: 22 April)

Date Brightness Start Highest point End Pass type
(mag) Time Alt. Az. Time Alt. Az. Time Alt. Az.
27 Apr -1.0 09:44:15 10° SSE 09:45:49 13° SE 09:47:23 10° E visible
29 Apr -2.7 09:35:26 18° S 09:37:26 39° SE 09:40:31 10° ENE visible
30 Apr -1.4 08:45:33 17° ESE 08:45:33 17° ESE 08:47:28 10° E visible
01 May -3.7 09:28:12 39° WSW 09:29:08 57° NW 09:32:21 10° NE visible
